This demonstration page uses our WeatherBlox Daily Observations layout. Learn more.

Hourly Observations for July 31, 2016

Temp ( °F °C ) Dew Point ( °F °C ) Humidity (%) Winds ( mph kmh ) Pressure ( in mb ) Visibility ( mi km ) Precip ( " mm )
12:15 am 00:15 Clear 71 21.5 67 19.7 90 90 SE 10 17 29.85 1011 10 16.09344 0 0
12:35 am 00:35 Clear 71 21.5 67 19.7 90 90 SE 10 17 29.85 1011 10 16.09344 0 0
12:55 am 00:55 Clear 70 21.2 67 19.7 91 91 SE 10 17 29.85 1011 10 16.09344 0 0
1:15 am 01:15 Clear 70 21 67 19.6 92 92 SE 9 15 29.85 1011 10 16.09344 0 0
1:35 am 01:35 Clear 69 20.8 67 19.5 92 92 SSE 8 13 29.85 1011 10 16.09344 0 0
1:55 am 01:55 Clear 69 20.7 67 19.5 93 93 SE 6 9 29.83 1010 10 16.09344 0 0
2:15 am 02:15 Clear 69 20.5 67 19.5 94 94 SSE 5 7 29.83 1010 10 16.09344 0 0
2:35 am 02:35 Partly Cloudy with Nearby Thunderstorms 69 20.5 67 19.3 93 93 SE 8 13 29.8 1009 10 16.09344 0 0
2:55 am 02:55 Partly Cloudy 69 20.5 67 19.5 94 94 SSE 7 11 29.8 1009 10 16.09344 0 0
3:15 am 03:15 Mostly Cloudy with Light Rain 69 20.8 67 19.7 93 93 SE 8 13 29.8 1009 10 16.09344 0 0
3:35 am 03:35 Partly Cloudy with Light Rain 69 20.8 68 19.8 94 94 ESE 10 17 29.8 1009 10 16.09344 0 0
3:55 am 03:55 Mostly Cloudy with Nearby Thunderstorms 69 20.8 68 19.8 94 94 SE 10 17 29.8 1009 10 16.09344 0 0
4:15 am 04:15 Mostly Cloudy with Nearby Thunderstorms 70 21 68 19.8 93 93 SSE 14 22 29.8 1009 10 16.09344 0 0
4:35 am 04:35 Partly Cloudy 69 20.8 67 19.4 92 92 E 3 6 29.8 1009 10 16.09344 0 0
4:55 am 04:55 Clear 69 20.8 65 18.6 87 87 S 6 9 29.77 1008 10 16.09344 0 0
5:15 am 05:15 Clear 69 20.5 65 18.5 88 88 NW 6 9 29.8 1009 10 16.09344 0 0
5:35 am 05:35 Partly Cloudy with Light Rain 69 20.7 66 18.8 89 89 SSE 8 13 29.74 1007 10 16.09344 0 0
5:55 am 05:55 Clear 68 19.9 63 17.2 85 85 S 12 19 29.74 1007 10 16.09344 0 0
6:15 am 06:15 Clear 67 19.2 63 17 87 87 ENE 6 9 29.8 1009 10 16.09344 0 0
6:35 am 06:35 Partly Cloudy 67 19.3 62 16.4 83 83 Calm 29.83 1010 10 16.09344 0 0
6:55 am 06:55 Sunny 67 19.3 62 16.8 86 86 N 7 11 29.85 1011 10 16.09344 0 0
7:15 am 07:15 Sunny 67 19.2 64 17.5 90 90 NE 6 9 29.85 1011 10 16.09344 0 0
7:35 am 07:35 Sunny 66 18.9 63 17 89 89 ENE 7 11 29.83 1010 10 16.09344 0 0
7:55 am 07:55 Sunny 67 19.3 63 17.3 88 88 E 8 13 29.83 1010 10 16.09344 0 0
8:15 am 08:15 Sunny 68 20.2 64 17.6 85 85 E 9 15 29.83 1010 10 16.09344 0 0
8:35 am 08:35 Sunny 71 21.4 65 18.3 83 83 E 10 17 29.83 1010 10 16.09344 0 0
8:55 am 08:55 Sunny 72 22.1 67 19.2 84 84 E 12 19 29.83 1010 10 16.09344 0 0
9:15 am 09:15 Sunny 73 22.8 66 19.1 80 80 ESE 15 24 29.8 1009 10 16.09344 0 0
9:35 am 09:35 Sunny 74 23.4 65 18.1 72 72 ESE 14 22 29.8 1009 10 16.09344 0 0
9:55 am 09:55 Sunny 75 24 64 17.5 67 67 SE 15 24 29.77 1008 10 16.09344 0 0
10:15 am 10:15 Sunny 75 24.1 65 18.4 71 71 ESE 14 22 29.77 1008 10 16.09344 0 0
10:35 am 10:35 Sunny 77 25 64 17.8 64 64 SE 14 22 29.77 1008 10 16.09344 0 0
10:55 am 10:55 Sunny 77 25.2 64 17.9 64 64 SE 17 28 29.77 1008 10 16.09344 0 0
11:15 am 11:15 Sunny 78 25.5 65 18.4 65 65 SSE 18 30 29.77 1008 10 16.09344 0 0
11:35 am 11:35 Sunny 78 25.4 66 18.8 67 67 S 17 28 29.77 1008 10 16.09344 0 0
11:55 am 11:55 Sunny 79 26.3 67 19.3 65 65 SSE 18 30 29.74 1007 10 16.09344 0 0
12:15 pm 12:15 Sunny 81 27 67 19.4 63 63 SSE 13 20 29.74 1007 10 16.09344 0 0
12:35 pm 12:35 Sunny 82 27.5 67 19.3 61 61 SSE 12 19 29.74 1007 10 16.09344 0 0
12:55 pm 12:55 Sunny 80 26.8 67 19.3 64 64 S 17 28 29.74 1007 10 16.09344 0 0
1:15 pm 13:15 Sunny 81 27.2 67 19.7 64 64 SSE 15 24 29.74 1007 10 16.09344 0 0
1:35 pm 13:35 Sunny 83 28.1 67 19.5 60 60 SSE 17 28 29.74 1007 10 16.09344 0 0
1:55 pm 13:55 Sunny 84 28.7 67 19.7 58 58 SSE 14 22 29.74 1007 10 16.09344 0 0
2:15 pm 14:15 Partly Cloudy 84 29.1 66 19.1 55 55 SE 16 26 29.74 1007 10 16.09344 0 0
2:35 pm 14:35 Sunny 85 29.5 67 19.7 56 56 SSE 15 24 29.71 1006 10 16.09344 0 0
2:55 pm 14:55 Sunny 86 30 68 20 55 55 SE 17 28 29.71 1006 10 16.09344 0 0
3:15 pm 15:15 Sunny 85 29.7 67 19.6 55 55 SSE 16 26 29.71 1006 10 16.09344 0 0
3:35 pm 15:35 Sunny 86 30.1 67 19.5 53 53 SSE 14 22 29.68 1005 10 16.09344 0 0
3:55 pm 15:55 Sunny 86 30 66 18.9 51 51 SSE 17 28 29.68 1005 10 16.09344 0 0
4:15 pm 16:15 Sunny 87 30.4 66 18.8 50 50 SSE 15 24 29.68 1005 10 16.09344 0 0
4:35 pm 16:35 Sunny 88 31 66 19.1 49 49 SE 15 24 29.68 1005 10 16.09344 0 0
4:55 pm 16:55 Sunny 88 31.1 67 19.2 49 49 SE 13 20 29.65 1004 10 16.09344 0 0
5:15 pm 17:15 Sunny 88 31 68 19.8 51 51 SSE 15 24 29.65 1004 10 16.09344 0 0
5:35 pm 17:35 Sunny 88 31 68 20.1 52 52 SE 15 24 29.65 1004 10 16.09344 0 0
5:55 pm 17:55 Sunny 88 31.1 69 20.3 53 53 SE 12 19 29.65 1004 10 16.09344 0 0
6:15 pm 18:15 Sunny 88 31.2 69 20.7 54 54 ESE 15 24 29.65 1004 10 16.09344 0 0
6:35 pm 18:35 Sunny 86 30.2 71 21.6 60 60 ESE 14 22 29.65 1004 10 16.09344 0 0
7:15 pm 19:15 Sunny 85 29.5 72 22.1 64 64 E 12 19 29.62 1003 10 16.09344 0 0
7:35 pm 19:35 Sunny 84 29 72 22.3 67 67 ESE 13 20 29.65 1004 10 16.09344 0 0
7:55 pm 19:55 Sunny 83 28.4 73 22.7 71 71 E 12 19 29.68 1005 10 16.09344 0 0
8:15 pm 20:15 Sunny 82 27.6 73 23 76 76 E 10 17 29.68 1005 10 16.09344 0 0
8:35 pm 20:35 Sunny 80 26.9 73 23 79 79 ESE 10 17 29.68 1005 10 16.09344 0 0
8:55 pm 20:55 Clear 79 26.1 73 23 83 83 ESE 9 15 29.68 1005 10 16.09344 0 0
9:15 pm 21:15 Clear 78 25.7 73 23 85 85 ESE 9 15 29.68 1005 10 16.09344 0 0
9:35 pm 21:35 Clear 78 25.3 73 22.7 86 86 ESE 8 13 29.68 1005 10 16.09344 0 0
9:55 pm 21:55 Clear 78 25.3 72 22.2 83 83 ESE 8 13 29.71 1006 10 16.09344 0 0
10:15 pm 22:15 Clear 77 24.8 72 22.2 86 86 ESE 9 15 29.74 1007 10 16.09344 0 0
10:35 pm 22:35 Clear 76 24.7 72 22.4 87 87 ESE 9 15 29.74 1007 10 16.09344 0 0
10:55 pm 22:55 Clear 77 25 73 22.5 86 86 SE 12 19 29.74 1007 10 16.09344 0 0
11:15 pm 23:15 Clear 77 25.1 73 22.6 86 86 SE 12 19 29.74 1007 10 16.09344 0 0
11:35 pm 23:35 Clear 77 24.9 73 22.6 87 87 SE 10 17 29.74 1007 10 16.09344 0 0
11:55 pm 23:55 Clear 76 24.7 73 22.7 89 89 SE 10 17 29.74 1007 10 16.09344 0 0

Powered by AerisWeather